{"data":{"norad_id":48222,"intl_designator":"2021-031N","name":"ONEWEB-0192","alt_names":[],"object_type":"PAYLOAD","status":"ACTIVE","operator":null,"country":"UK","launch_date":"2021-04-25","launch_site_code":"VOSTO","launch_vehicle":null,"mission":null,"orbit_class":"UNKNOWN","rcs_meters":null,"size_class":null,"mass_kg":null,"dimensions":null,"purposes":["comms"],"wikipedia_slug":null,"has_3d_model":false,"image_url":null,"decayed_at":null,"tle_current":{"epoch":"2026-09-20T00:15:06.522624Z","epoch_age_seconds":60610,"freshness":"FRESH","line1":"1 48222U 21031N   26263.01049216  .00000206  00000+0  52242-3 0  9992","line2":"2 48222  87.8892 270.7887 0001867  91.2970 268.8373 13.14501956260630","mean_motion":13.14501956,"eccentricity":0.0001867,"inclination_deg":87.8892,"raan_deg":270.7887,"arg_perigee_deg":91.297,"mean_anomaly_deg":268.8373,"bstar":0.00052242,"rev_number":26063,"period_min":109.54719340106,"perigee_km":1204.3776810665,"apogee_km":1207.2095207528,"semimajor_km":7583.9306009097,"source":"CELESTRAK","updated_at":"2026-09-20T09:00:44.594639Z"}}}